GFSNGP_prec_precacc24_078.txt.gz
Total_Precipitation_Accumulation
0.04 0.03 0.08 0.17 0.18 0.19 0.30 0.19 0.08 0.02 0.10 0.25 0.39 0.11 0.01 0.00 0.00 0.00 0.00 0.00 0.01 0.03 0.04 0.05 0.04 0.02 0.01 0.00 0.01 0.01 0.01 0.00 0.01 0.03 0.04 0.04 0.08 0.09 0.11 0.10 0.12 0.14 0.11 0.08
0.04 0.01 0.07 0.14 0.15 0.11 0.15 0.10 0.07 0.05 0.16 0.21 0.34 0.21 0.01 0.00 0.00 0.00 0.00 0.00 0.00 0.00 0.00 0.01 0.07 0.14 0.13 0.07 0.04 0.03 0.01 0.03 0.03 0.04 0.05 0.06 0.07 0.05 0.07 0.13 0.19 0.17 0.14 0.19
0.25 0.08 0.08 0.10 0.05 0.14 0.13 0.11 0.07 0.12 0.12 0.22 0.24 0.29 0.09 0.00 0.00 0.00 0.00 0.00 0.00 0.00 0.00 0.00 0.00 0.01 0.02 0.08 0.09 0.08 0.10 0.08 0.06 0.06 0.06 0.06 0.09 0.11 0.13 0.19 0.25 0.20 0.19 0.16
0.23 0.14 0.21 0.08 0.04 0.19 0.28 0.24 0.08 0.14 0.19 0.30 0.21 0.12 0.04 0.01 0.00 0.00 0.00 0.00 0.00 0.00 0.00 0.00 0.00 0.00 0.00 0.01 0.04 0.04 0.07 0.08 0.06 0.06 0.07 0.09 0.12 0.08 0.11 0.16 0.17 0.16 0.16 0.16
0.18 0.19 0.15 0.08 0.20 0.12 0.40 0.40 0.22 0.24 0.40 0.29 0.14 0.02 0.01 0.00 0.00 0.00 0.00 0.00 0.00 0.00 0.00 0.00 0.00 0.00 0.00 0.00 0.00 0.01 0.01 0.05 0.11 0.14 0.13 0.17 0.16 0.12 0.12 0.13 0.14 0.14 0.14 0.13
0.11 0.24 0.17 0.06 0.08 0.10 0.24 0.51 0.30 0.48 0.37 0.24 0.12 0.05 0.02 0.00 0.00 0.00 0.00 0.00 0.00 0.00 0.00 0.00 0.00 0.00 0.00 0.00 0.00 0.00 0.01 0.04 0.07 0.08 0.09 0.15 0.15 0.14 0.13 0.13 0.12 0.12 0.14 0.10
0.09 0.18 0.08 0.03 0.04 0.07 0.44 0.45 0.28 0.21 0.13 0.14 0.10 0.04 0.01 0.00 0.00 0.00 0.00 0.00 0.00 0.00 0.00 0.00 0.00 0.00 0.00 0.00 0.00 0.00 0.00 0.00 0.01 0.03 0.07 0.05 0.10 0.08 0.13 0.21 0.19 0.17 0.15 0.10
0.07 0.16 0.12 0.10 0.19 0.30 0.26 0.22 0.14 0.10 0.06 0.04 0.02 0.01 0.01 0.00 0.00 0.00 0.00 0.00 0.00 0.00 0.00 0.00 0.00 0.00 0.00 0.00 0.00 0.00 0.00 0.00 0.02 0.02 0.04 0.10 0.13 0.14 0.13 0.14 0.16 0.16 0.13 0.11
0.03 0.14 0.20 0.12 0.18 0.24 0.15 0.16 0.04 0.03 0.03 0.01 0.00 0.00 0.00 0.00 0.00 0.00 0.00 0.00 0.00 0.00 0.00 0.00 0.00 0.00 0.00 0.00 0.00 0.00 0.01 0.03 0.04 0.05 0.07 0.09 0.11 0.14 0.12 0.11 0.14 0.17 0.19 0.23
0.16 0.38 0.13 0.06 0.01 0.01 0.03 0.03 0.02 0.02 0.01 0.00 0.00 0.00 0.00 0.00 0.00 0.00 0.00 0.00 0.00 0.00 0.00 0.00 0.00 0.00 0.00 0.02 0.04 0.06 0.08 0.08 0.08 0.09 0.13 0.08 0.07 0.09 0.11 0.13 0.18 0.25 0.30 0.35
0.43 1.17 0.44 0.25 0.13 0.02 0.01 0.00 0.00 0.00 0.00 0.00 0.00 0.00 0.00 0.00 0.00 0.00 0.00 0.00 0.00 0.00 0.00 0.02 0.02 0.01 0.03 0.04 0.06 0.07 0.07 0.07 0.08 0.08 0.09 0.09 0.10 0.16 0.14 0.19 0.26 0.27 0.35 0.46
0.56 0.81 0.66 0.37 0.09 0.01 0.01 0.00 0.00 0.00 0.00 0.00 0.00 0.00 0.00 0.00 0.00 0.00 0.00 0.01 0.01 0.00 0.00 0.01 0.01 0.02 0.02 0.04 0.05 0.07 0.09 0.10 0.12 0.10 0.11 0.12 0.14 0.21 0.31 0.34 0.37 0.40 0.46 0.47
0.31 0.32 0.22 0.07 0.03 0.02 0.01 0.01 0.02 0.01 0.01 0.01 0.00 0.00 0.00 0.00 0.00 0.00 0.01 0.01 0.01 0.01 0.02 0.04 0.04 0.04 0.06 0.10 0.15 0.17 0.20 0.20 0.22 0.23 0.23 0.23 0.24 0.28 0.39 0.65 0.79 0.94 1.01 1.03
0.08 0.05 0.06 0.06 0.05 0.03 0.04 0.05 0.04 0.03 0.01 0.01 0.01 0.01 0.00 0.01 0.01 0.03 0.04 0.03 0.04 0.04 0.06 0.09 0.14 0.21 0.28 0.34 0.37 0.38 0.39 0.44 0.46 0.49 0.53 0.60 0.65 0.69 0.71 0.74 0.79 0.91 0.92 0.82
0.00 0.00 0.00 0.02 0.04 0.04 0.05 0.07 0.12 0.14 0.14 0.12 0.11 0.11 0.10 0.11 0.14 0.18 0.19 0.17 0.15 0.14 0.15 0.15 0.16 0.22 0.23 0.22 0.27 0.36 0.44 0.54 0.64 0.76 0.87 0.86 0.80 0.74 0.70 0.67 0.67 0.71 0.68 0.62
0.00 0.00 0.00 0.00 0.01 0.02 0.02 0.03 0.05 0.07 0.09 0.08 0.08 0.10 0.14 0.16 0.16 0.14 0.15 0.16 0.18 0.21 0.21 0.17 0.18 0.27 0.23 0.23 0.32 0.48 0.69 0.83 0.81 0.78 0.76 0.68 0.62 0.57 0.54 0.51 0.49 0.48 0.48 0.49
0.03 0.02 0.02 0.03 0.03 0.03 0.04 0.04 0.05 0.06 0.08 0.09 0.13 0.13 0.13 0.14 0.16 0.19 0.21 0.19 0.15 0.17 0.18 0.21 0.38 0.43 0.46 0.47 0.42 0.44 0.41 0.41 0.37 0.32 0.32 0.31 0.30 0.28 0.27 0.24 0.23 0.22 0.25 0.22
0.04 0.05 0.06 0.07 0.07 0.08 0.10 0.12 0.12 0.13 0.15 0.16 0.16 0.14 0.14 0.13 0.16 0.17 0.21 0.16 0.12 0.16 0.29 0.40 0.40 0.33 0.28 0.26 0.21 0.20 0.18 0.18 0.16 0.15 0.15 0.15 0.15 0.14 0.13 0.12 0.12 0.11 0.11 0.08
0.03 0.03 0.04 0.07 0.09 0.09 0.10 0.12 0.14 0.15 0.16 0.16 0.14 0.17 0.17 0.20 0.22 0.28 0.28 0.21 0.22 0.23 0.40 0.33 0.25 0.17 0.17 0.16 0.12 0.11 0.09 0.09 0.08 0.08 0.07 0.07 0.06 0.06 0.06 0.06 0.06 0.06 0.06 0.05
0.08 0.09 0.09 0.10 0.11 0.11 0.14 0.17 0.15 0.15 0.23 0.19 0.17 0.17 0.18 0.26 0.26 0.24 0.18 0.18 0.22 0.25 0.22 0.16 0.10 0.08 0.07 0.05 0.02 0.02 0.02 0.02 0.02 0.03 0.03 0.03 0.03 0.04 0.04 0.04 0.04 0.04 0.04 0.03
0.12 0.13 0.14 0.14 0.16 0.16 0.17 0.20 0.14 0.16 0.24 0.21 0.15 0.18 0.18 0.21 0.18 0.16 0.09 0.09 0.17 0.12 0.08 0.05 0.03 0.03 0.02 0.01 0.01 0.01 0.01 0.01 0.01 0.02 0.02 0.02 0.02 0.02 0.01 0.01 0.01 0.01 0.01 0.01
0.17 0.16 0.18 0.19 0.14 0.18 0.22 0.20 0.16 0.18 0.18 0.17 0.16 0.17 0.13 0.14 0.11 0.08 0.08 0.07 0.09 0.04 0.03 0.02 0.02 0.01 0.01 0.00 0.00 0.00 0.00 0.00 0.00 0.00 0.00 0.00 0.00 0.00 0.01 0.01 0.01 0.01 0.01 0.01
0.20 0.19 0.19 0.18 0.17 0.19 0.19 0.17 0.17 0.15 0.14 0.13 0.10 0.09 0.06 0.06 0.04 0.01 0.03 0.03 0.01 0.01 0.00 0.00 0.00 0.00 0.00 0.00 0.00 0.00 0.00 0.00 0.00 0.00 0.00 0.00 0.00 0.00 0.00 0.00 0.01 0.01 0.01 0.01
0.20 0.20 0.19 0.19 0.17 0.13 0.12 0.15 0.10 0.07 0.04 0.03 0.02 0.02 0.01 0.01 0.02 0.01 0.00 0.00 0.00 0.00 0.00 0.00 0.00 0.00 0.00 0.00 0.00 0.00 0.00 0.00 0.01 0.00 0.00 0.00 0.01 0.01 0.01 0.00 0.00 0.00 0.00 0.00
0.12 0.12 0.11 0.12 0.07 0.05 0.03 0.01 0.00 0.00 0.00 0.01 0.01 0.01 0.00 0.00 0.01 0.02 0.00 0.00 0.00 0.00 0.00 0.00 0.00 0.00 0.00 0.00 0.00 0.00 0.01 0.00 0.00 0.00 0.01 0.00 0.01 0.01 0.01 0.00 0.00 0.00 0.01 0.00
0.06 0.03 0.02 0.01 0.01 0.00 0.00 0.00 0.01 0.01 0.01 0.01 0.02 0.02 0.01 0.01 0.00 0.01 0.00 0.00 0.00 0.00 0.00 0.00 0.00 0.00 0.00 0.00 0.00 0.00 0.00 0.00 0.00 0.00 0.00 0.00 0.01 0.01 0.00 0.00 0.00 0.00 0.00 0.00
0.00 0.00 0.00 0.00 0.00 0.00 0.00 0.00 0.01 0.02 0.01 0.01 0.02 0.02 0.01 0.00 0.00 0.00 0.00 0.00 0.00 0.00 0.00 0.01 0.01 0.00 0.00 0.00 0.00 0.00 0.00 0.00 0.00 0.00 0.00 0.01 0.00 0.01 0.00 0.00 0.00 0.00 0.00 0.00

GFSNGP_prec_precacc24_084.txt.gz
Total_Precipitation_Accumulation
0.04 0.03 0.08 0.17 0.18 0.20 0.32 0.23 0.15 0.04 0.11 0.37 0.72 0.32 0.06 0.02 0.01 0.02 0.01 0.02 0.03 0.07 0.13 0.14 0.11 0.05 0.04 0.02 0.02 0.02 0.01 0.01 0.01 0.00 0.00 0.00 0.00 0.00 0.01 0.02 0.03 0.04 0.03 0.02
0.04 0.01 0.07 0.14 0.15 0.11 0.15 0.10 0.09 0.06 0.17 0.30 0.56 0.55 0.29 0.15 0.03 0.05 0.04 0.04 0.04 0.06 0.12 0.16 0.21 0.25 0.25 0.17 0.10 0.07 0.05 0.07 0.06 0.04 0.02 0.01 0.00 0.00 0.01 0.02 0.04 0.06 0.06 0.11
0.25 0.08 0.08 0.10 0.05 0.14 0.14 0.11 0.07 0.12 0.12 0.30 0.57 0.63 0.47 0.33 0.12 0.04 0.03 0.02 0.03 0.05 0.06 0.06 0.04 0.04 0.06 0.11 0.12 0.11 0.12 0.10 0.06 0.06 0.04 0.03 0.03 0.02 0.05 0.06 0.08 0.11 0.13 0.11
0.19 0.13 0.18 0.08 0.05 0.22 0.36 0.28 0.11 0.16 0.20 0.39 0.46 0.29 0.41 0.37 0.34 0.10 0.04 0.02 0.01 0.01 0.02 0.01 0.00 0.00 0.00 0.01 0.04 0.04 0.07 0.09 0.06 0.06 0.06 0.07 0.07 0.08 0.08 0.06 0.08 0.09 0.11 0.10
0.11 0.15 0.14 0.08 0.26 0.33 0.66 0.58 0.31 0.28 0.42 0.38 0.25 0.07 0.35 0.38 0.27 0.28 0.05 0.02 0.00 0.00 0.00 0.01 0.00 0.00 0.00 0.00 0.00 0.00 0.01 0.05 0.10 0.11 0.09 0.12 0.06 0.03 0.04 0.07 0.08 0.12 0.16 0.10
0.06 0.15 0.13 0.06 0.11 0.26 0.46 0.88 0.89 0.70 0.48 0.39 0.24 0.16 0.35 0.37 0.27 0.25 0.19 0.05 0.01 0.00 0.01 0.00 0.00 0.00 0.00 0.00 0.00 0.00 0.00 0.02 0.04 0.05 0.06 0.11 0.10 0.07 0.08 0.10 0.11 0.13 0.16 0.10
0.07 0.12 0.04 0.03 0.06 0.19 0.79 0.79 0.89 1.11 0.55 0.39 0.34 0.31 0.36 0.36 0.25 0.13 0.16 0.15 0.06 0.01 0.00 0.00 0.00 0.00 0.00 0.00 0.00 0.00 0.00 0.00 0.00 0.02 0.05 0.04 0.09 0.06 0.10 0.19 0.17 0.16 0.15 0.10
0.05 0.09 0.05 0.11 0.23 0.52 0.68 0.69 0.71 0.79 0.68 0.64 0.63 0.47 0.36 0.18 0.07 0.02 0.02 0.04 0.06 0.04 0.02 0.00 0.00 0.00 0.00 0.00 0.00 0.00 0.00 0.00 0.02 0.02 0.04 0.10 0.13 0.13 0.11 0.13 0.14 0.14 0.13 0.13
0.04 0.08 0.18 0.10 0.18 0.36 0.47 0.45 0.36 0.46 0.47 0.43 0.37 0.29 0.17 0.05 0.01 0.01 0.01 0.01 0.00 0.01 0.01 0.01 0.00 0.00 0.00 0.00 0.00 0.00 0.01 0.03 0.04 0.04 0.06 0.06 0.08 0.11 0.09 0.09 0.12 0.16 0.19 0.24
0.25 0.51 0.18 0.08 0.13 0.16 0.20 0.21 0.10 0.09 0.09 0.09 0.10 0.08 0.05 0.02 0.00 0.00 0.00 0.00 0.00 0.00 0.00 0.00 0.00 0.00 0.00 0.00 0.02 0.05 0.08 0.08 0.08 0.09 0.11 0.06 0.05 0.06 0.09 0.11 0.17 0.25 0.31 0.36
0.61 1.29 0.61 0.53 0.54 0.42 0.17 0.15 0.07 0.07 0.06 0.05 0.03 0.01 0.01 0.00 0.00 0.00 0.00 0.00 0.00 0.00 0.00 0.02 0.02 0.00 0.02 0.03 0.05 0.07 0.07 0.07 0.08 0.08 0.09 0.09 0.11 0.16 0.15 0.21 0.27 0.27 0.36 0.47
0.84 1.07 0.90 0.74 0.46 0.30 0.14 0.07 0.03 0.02 0.01 0.00 0.00 0.00 0.00 0.00 0.00 0.00 0.00 0.01 0.01 0.00 0.00 0.01 0.00 0.01 0.02 0.04 0.05 0.07 0.09 0.10 0.12 0.11 0.11 0.12 0.15 0.22 0.32 0.36 0.37 0.41 0.46 0.47
0.67 0.71 0.55 0.38 0.21 0.11 0.04 0.01 0.00 0.00 0.01 0.00 0.00 0.00 0.00 0.00 0.00 0.01 0.01 0.01 0.01 0.02 0.03 0.04 0.04 0.05 0.06 0.10 0.15 0.17 0.20 0.21 0.23 0.24 0.23 0.23 0.24 0.26 0.37 0.60 0.73 0.88 0.94 0.96
0.36 0.27 0.15 0.09 0.04 0.01 0.00 0.00 0.01 0.01 0.00 0.00 0.00 0.00 0.00 0.01 0.01 0.02 0.03 0.03 0.03 0.03 0.05 0.09 0.13 0.21 0.28 0.34 0.36 0.38 0.38 0.44 0.46 0.48 0.48 0.50 0.53 0.57 0.61 0.65 0.70 0.81 0.84 0.78
0.06 0.02 0.02 0.01 0.00 0.00 0.00 0.02 0.09 0.13 0.13 0.12 0.11 0.11 0.10 0.12 0.15 0.19 0.20 0.16 0.13 0.11 0.12 0.13 0.15 0.23 0.23 0.22 0.26 0.34 0.41 0.49 0.55 0.59 0.65 0.67 0.66 0.63 0.59 0.56 0.55 0.58 0.55 0.49
0.00 0.00 0.00 0.00 0.00 0.00 0.00 0.01 0.03 0.06 0.08 0.08 0.09 0.11 0.15 0.17 0.16 0.15 0.15 0.17 0.18 0.21 0.21 0.16 0.17 0.27 0.20 0.17 0.20 0.28 0.40 0.50 0.52 0.55 0.58 0.54 0.50 0.44 0.41 0.38 0.36 0.35 0.35 0.38
0.01 0.02 0.02 0.02 0.02 0.02 0.03 0.03 0.04 0.06 0.08 0.10 0.13 0.13 0.13 0.15 0.16 0.19 0.21 0.18 0.14 0.15 0.14 0.13 0.22 0.19 0.17 0.16 0.15 0.20 0.22 0.26 0.25 0.22 0.23 0.23 0.22 0.21 0.20 0.17 0.17 0.16 0.18 0.17
0.01 0.03 0.03 0.04 0.04 0.06 0.08 0.11 0.11 0.12 0.15 0.16 0.15 0.13 0.13 0.13 0.14 0.15 0.16 0.13 0.08 0.06 0.10 0.15 0.15 0.12 0.11 0.12 0.10 0.11 0.10 0.11 0.09 0.10 0.11 0.11 0.11 0.10 0.09 0.08 0.07 0.06 0.06 0.03
0.01 0.02 0.02 0.03 0.04 0.05 0.07 0.10 0.12 0.12 0.14 0.13 0.12 0.13 0.13 0.14 0.14 0.16 0.15 0.09 0.07 0.07 0.15 0.11 0.07 0.04 0.04 0.05 0.04 0.04 0.04 0.04 0.04 0.05 0.04 0.04 0.03 0.03 0.03 0.02 0.02 0.02 0.01 0.01
0.03 0.04 0.04 0.06 0.06 0.06 0.08 0.10 0.09 0.09 0.13 0.11 0.09 0.09 0.09 0.13 0.13 0.10 0.07 0.06 0.07 0.09 0.07 0.04 0.02 0.02 0.02 0.01 0.00 0.00 0.01 0.00 0.00 0.01 0.00 0.00 0.00 0.01 0.01 0.01 0.01 0.01 0.01 0.01
0.06 0.06 0.07 0.08 0.09 0.10 0.10 0.11 0.09 0.10 0.13 0.12 0.08 0.09 0.09 0.10 0.08 0.07 0.03 0.03 0.06 0.04 0.02 0.01 0.00 0.00 0.00 0.00 0.00 0.00 0.00 0.00 0.00 0.00 0.00 0.00 0.00 0.00 0.00 0.01 0.01 0.01 0.01 0.01
0.10 0.09 0.10 0.11 0.09 0.10 0.13 0.12 0.11 0.11 0.12 0.11 0.10 0.10 0.08 0.07 0.05 0.03 0.02 0.02 0.02 0.00 0.00 0.00 0.00 0.00 0.00 0.00 0.00 0.00 0.00 0.00 0.00 0.00 0.00 0.00 0.00 0.00 0.01 0.01 0.01 0.01 0.01 0.01
0.10 0.10 0.10 0.11 0.10 0.11 0.12 0.11 0.11 0.10 0.09 0.07 0.05 0.04 0.02 0.02 0.01 0.00 0.00 0.00 0.00 0.00 0.00 0.00 0.00 0.00 0.00 0.00 0.00 0.00 0.00 0.00 0.00 0.00 0.00 0.00 0.00 0.00 0.00 0.00 0.01 0.01 0.01 0.00
0.09 0.10 0.09 0.10 0.09 0.08 0.07 0.08 0.05 0.03 0.01 0.01 0.00 0.00 0.00 0.01 0.01 0.00 0.00 0.00 0.00 0.00 0.00 0.00 0.00 0.00 0.00 0.00 0.00 0.00 0.00 0.00 0.01 0.00 0.00 0.00 0.01 0.01 0.01 0.00 0.00 0.00 0.01 0.00
0.08 0.08 0.08 0.09 0.05 0.03 0.01 0.00 0.00 0.00 0.00 0.00 0.00 0.00 0.00 0.00 0.00 0.00 0.00 0.00 0.00 0.00 0.00 0.00 0.00 0.00 0.00 0.00 0.00 0.00 0.01 0.00 0.00 0.00 0.01 0.00 0.01 0.01 0.01 0.00 0.00 0.00 0.01 0.00
0.05 0.03 0.02 0.01 0.01 0.00 0.00 0.01 0.02 0.02 0.02 0.01 0.01 0.01 0.01 0.00 0.00 0.00 0.00 0.00 0.00 0.00 0.00 0.00 0.00 0.00 0.00 0.00 0.00 0.00 0.00 0.00 0.00 0.00 0.00 0.00 0.00 0.00 0.00 0.00 0.00 0.00 0.00 0.00
0.00 0.00 0.00 0.00 0.00 0.00 0.00 0.00 0.01 0.02 0.02 0.02 0.02 0.01 0.00 0.00 0.00 0.00 0.00 0.00 0.00 0.00 0.00 0.01 0.01 0.01 0.01 0.00 0.00 0.00 0.00 0.01 0.01 0.00 0.00 0.00 0.00 0.01 0.00 0.00 0.00 0.00 0.00 0.00

GFSNGP_prec_precacc24_087.txt.gz
Total_Precipitation_Accumulation
0.04 0.03 0.08 0.17 0.18 0.20 0.32 0.23 0.15 0.04 0.11 0.37 0.72 0.32 0.06 0.02 0.01 0.05 0.04 0.05 0.08 0.12 0.16 0.16 0.13 0.07 0.05 0.02 0.02 0.02 0.01 0.01 0.01 0.00 0.00 0.00 0.00 0.00 0.00 0.00 0.00 0.00 0.00 0.00
0.04 0.01 0.07 0.14 0.15 0.11 0.15 0.10 0.09 0.06 0.17 0.30 0.56 0.56 0.29 0.15 0.04 0.09 0.09 0.06 0.08 0.12 0.15 0.19 0.28 0.31 0.29 0.18 0.10 0.07 0.05 0.07 0.06 0.04 0.02 0.01 0.00 0.00 0.00 0.00 0.00 0.00 0.00 0.01
0.25 0.08 0.08 0.10 0.05 0.14 0.14 0.11 0.07 0.12 0.12 0.30 0.57 0.65 0.50 0.33 0.14 0.11 0.11 0.06 0.06 0.10 0.10 0.11 0.11 0.06 0.09 0.13 0.13 0.12 0.13 0.11 0.07 0.07 0.04 0.04 0.04 0.03 0.04 0.03 0.02 0.01 0.02 0.02
0.19 0.13 0.18 0.08 0.05 0.22 0.36 0.28 0.11 0.16 0.20 0.39 0.46 0.30 0.43 0.43 0.43 0.25 0.16 0.09 0.05 0.04 0.04 0.04 0.04 0.02 0.02 0.04 0.05 0.05 0.08 0.10 0.07 0.08 0.07 0.08 0.08 0.09 0.10 0.06 0.08 0.07 0.07 0.05
0.11 0.15 0.14 0.08 0.26 0.33 0.66 0.58 0.31 0.28 0.42 0.39 0.26 0.07 0.37 0.45 0.40 0.57 0.26 0.14 0.09 0.07 0.02 0.02 0.04 0.05 0.05 0.03 0.02 0.02 0.02 0.06 0.11 0.12 0.10 0.12 0.07 0.04 0.05 0.07 0.07 0.09 0.13 0.08
0.06 0.15 0.13 0.06 0.11 0.26 0.47 0.88 0.90 0.71 0.49 0.40 0.25 0.19 0.43 0.43 0.29 0.39 0.57 0.22 0.10 0.06 0.03 0.02 0.04 0.07 0.08 0.04 0.01 0.00 0.00 0.02 0.04 0.05 0.06 0.11 0.10 0.07 0.07 0.08 0.08 0.12 0.16 0.10
0.04 0.11 0.04 0.03 0.06 0.19 0.82 0.86 0.96 1.25 0.77 0.62 0.47 0.40 0.50 0.52 0.34 0.25 0.45 0.54 0.20 0.06 0.02 0.02 0.03 0.05 0.07 0.02 0.00 0.00 0.00 0.00 0.00 0.02 0.04 0.04 0.09 0.06 0.10 0.18 0.17 0.16 0.14 0.09
0.04 0.07 0.05 0.11 0.23 0.54 0.74 0.84 0.88 1.07 1.13 1.18 1.00 0.82 0.67 0.43 0.23 0.13 0.12 0.25 0.37 0.21 0.06 0.01 0.02 0.02 0.01 0.00 0.00 0.00 0.00 0.00 0.00 0.00 0.01 0.06 0.09 0.12 0.11 0.12 0.14 0.12 0.11 0.10
0.06 0.09 0.20 0.12 0.20 0.41 0.52 0.56 0.55 0.68 0.73 0.78 0.71 0.58 0.42 0.19 0.09 0.07 0.08 0.07 0.07 0.12 0.15 0.12 0.05 0.01 0.01 0.00 0.00 0.00 0.00 0.00 0.01 0.02 0.03 0.05 0.07 0.09 0.08 0.07 0.09 0.12 0.15 0.19
0.41 0.59 0.21 0.10 0.16 0.24 0.31 0.38 0.29 0.29 0.29 0.26 0.25 0.26 0.23 0.12 0.04 0.02 0.01 0.01 0.02 0.03 0.04 0.05 0.06 0.05 0.04 0.02 0.02 0.02 0.03 0.04 0.04 0.07 0.11 0.06 0.04 0.04 0.06 0.07 0.11 0.17 0.23 0.30
0.72 1.36 0.64 0.56 0.61 0.54 0.33 0.31 0.23 0.22 0.17 0.12 0.08 0.08 0.09 0.07 0.05 0.03 0.02 0.02 0.02 0.01 0.01 0.02 0.02 0.01 0.01 0.01 0.02 0.04 0.05 0.06 0.07 0.08 0.08 0.09 0.11 0.15 0.14 0.20 0.23 0.24 0.33 0.43
0.89 1.14 0.97 0.81 0.56 0.40 0.24 0.17 0.11 0.06 0.03 0.01 0.01 0.01 0.01 0.01 0.01 0.01 0.00 0.00 0.01 0.01 0.01 0.02 0.01 0.01 0.02 0.03 0.04 0.06 0.08 0.10 0.13 0.11 0.11 0.12 0.15 0.22 0.32 0.36 0.36 0.39 0.43 0.44
0.76 0.80 0.65 0.48 0.30 0.20 0.11 0.07 0.03 0.00 0.00 0.00 0.00 0.00 0.00 0.00 0.00 0.00 0.00 0.00 0.01 0.02 0.02 0.03 0.04 0.04 0.06 0.10 0.14 0.16 0.20 0.21 0.23 0.23 0.23 0.23 0.24 0.26 0.36 0.50 0.61 0.75 0.82 0.87
0.45 0.34 0.23 0.18 0.10 0.05 0.02 0.01 0.00 0.00 0.00 0.00 0.00 0.00 0.00 0.01 0.00 0.01 0.03 0.03 0.02 0.01 0.02 0.04 0.06 0.14 0.21 0.27 0.31 0.33 0.34 0.40 0.41 0.44 0.46 0.49 0.51 0.52 0.54 0.57 0.62 0.74 0.78 0.75
0.12 0.06 0.05 0.03 0.01 0.00 0.00 0.00 0.00 0.00 0.00 0.01 0.07 0.10 0.10 0.12 0.15 0.19 0.20 0.16 0.13 0.11 0.11 0.11 0.10 0.16 0.14 0.13 0.18 0.26 0.33 0.41 0.48 0.54 0.58 0.57 0.56 0.55 0.54 0.52 0.51 0.54 0.51 0.46
0.02 0.00 0.00 0.00 0.00 0.00 0.00 0.00 0.01 0.02 0.02 0.01 0.04 0.08 0.14 0.16 0.16 0.15 0.15 0.17 0.18 0.21 0.20 0.16 0.16 0.23 0.15 0.08 0.07 0.09 0.18 0.28 0.35 0.41 0.45 0.44 0.42 0.39 0.38 0.36 0.34 0.33 0.34 0.37
0.00 0.02 0.01 0.01 0.01 0.01 0.01 0.01 0.02 0.03 0.05 0.06 0.10 0.12 0.13 0.14 0.16 0.18 0.20 0.17 0.14 0.14 0.12 0.11 0.17 0.13 0.09 0.07 0.06 0.08 0.10 0.11 0.12 0.13 0.16 0.18 0.18 0.18 0.18 0.16 0.15 0.14 0.17 0.15
0.01 0.02 0.01 0.02 0.01 0.02 0.03 0.04 0.04 0.07 0.11 0.12 0.12 0.12 0.12 0.11 0.13 0.14 0.14 0.11 0.07 0.05 0.07 0.10 0.10 0.07 0.05 0.06 0.04 0.05 0.05 0.06 0.05 0.06 0.07 0.08 0.08 0.07 0.06 0.06 0.05 0.04 0.04 0.02
0.01 0.01 0.01 0.02 0.02 0.02 0.03 0.04 0.06 0.08 0.10 0.11 0.10 0.11 0.11 0.12 0.12 0.13 0.12 0.08 0.06 0.05 0.09 0.06 0.03 0.01 0.01 0.01 0.01 0.01 0.01 0.01 0.01 0.01 0.01 0.02 0.02 0.02 0.02 0.02 0.01 0.01 0.01 0.00
0.02 0.02 0.02 0.03 0.03 0.03 0.05 0.06 0.06 0.06 0.09 0.08 0.07 0.07 0.07 0.10 0.10 0.08 0.05 0.04 0.05 0.05 0.03 0.01 0.00 0.00 0.00 0.00 0.00 0.00 0.00 0.00 0.00 0.00 0.00 0.00 0.00 0.01 0.01 0.01 0.01 0.01 0.01 0.01
0.03 0.04 0.04 0.04 0.06 0.06 0.06 0.07 0.06 0.07 0.09 0.08 0.06 0.07 0.06 0.06 0.05 0.05 0.02 0.01 0.02 0.01 0.00 0.00 0.00 0.00 0.00 0.00 0.00 0.00 0.00 0.00 0.00 0.00 0.00 0.00 0.00 0.00 0.00 0.01 0.01 0.01 0.01 0.01
0.05 0.05 0.06 0.07 0.06 0.07 0.09 0.08 0.08 0.08 0.08 0.08 0.08 0.07 0.06 0.04 0.01 0.00 0.00 0.00 0.00 0.00 0.00 0.00 0.00 0.00 0.00 0.00 0.00 0.00 0.00 0.00 0.00 0.00 0.00 0.00 0.00 0.00 0.01 0.01 0.01 0.01 0.00 0.01
0.06 0.06 0.06 0.07 0.07 0.07 0.08 0.07 0.07 0.07 0.06 0.05 0.03 0.02 0.00 0.00 0.00 0.00 0.00 0.00 0.00 0.00 0.00 0.00 0.00 0.00 0.00 0.00 0.00 0.00 0.00 0.00 0.00 0.00 0.00 0.00 0.00 0.00 0.00 0.00 0.01 0.01 0.01 0.00
0.05 0.05 0.05 0.06 0.06 0.05 0.05 0.05 0.03 0.01 0.00 0.00 0.00 0.00 0.00 0.01 0.00 0.00 0.00 0.00 0.00 0.00 0.00 0.00 0.00 0.00 0.00 0.00 0.00 0.00 0.00 0.00 0.01 0.00 0.00 0.00 0.01 0.01 0.01 0.00 0.00 0.00 0.01 0.00
0.04 0.04 0.05 0.06 0.04 0.02 0.00 0.00 0.00 0.00 0.00 0.00 0.00 0.00 0.00 0.00 0.00 0.00 0.00 0.00 0.00 0.00 0.00 0.00 0.00 0.00 0.00 0.00 0.00 0.00 0.01 0.00 0.00 0.00 0.01 0.00 0.01 0.01 0.01 0.00 0.00 0.00 0.01 0.00
0.03 0.01 0.01 0.01 0.01 0.00 0.00 0.01 0.02 0.02 0.02 0.02 0.01 0.01 0.00 0.00 0.00 0.00 0.00 0.00 0.00 0.00 0.00 0.00 0.00 0.00 0.00 0.00 0.00 0.00 0.00 0.00 0.00 0.00 0.00 0.00 0.00 0.00 0.00 0.00 0.00 0.00 0.00 0.00
0.00 0.00 0.00 0.00 0.00 0.00 0.00 0.00 0.01 0.02 0.02 0.02 0.02 0.01 0.00 0.00 0.00 0.00 0.00 0.00 0.00 0.00 0.00 0.01 0.01 0.01 0.01 0.00 0.00 0.00 0.00 0.01 0.01 0.00 0.01 0.01 0.00 0.01 0.00 0.00 0.00 0.00 0.00 0.00

GFSNGP_prec_precacc24_093.txt.gz
Total_Precipitation_Accumulation
0.05 0.03 0.08 0.18 0.19 0.20 0.33 0.24 0.15 0.04 0.11 0.37 0.72 0.32 0.07 0.03 0.01 0.05 0.04 0.05 0.11 0.17 0.21 0.21 0.19 0.13 0.09 0.05 0.07 0.03 0.02 0.01 0.02 0.01 0.01 0.01 0.01 0.00 0.01 0.01 0.01 0.02 0.02 0.02
0.03 0.01 0.07 0.14 0.15 0.11 0.15 0.10 0.09 0.06 0.17 0.30 0.56 0.56 0.30 0.15 0.04 0.09 0.09 0.08 0.11 0.17 0.21 0.26 0.35 0.44 0.43 0.25 0.15 0.08 0.06 0.08 0.07 0.06 0.04 0.03 0.02 0.02 0.01 0.00 0.00 0.01 0.01 0.02
0.21 0.08 0.08 0.09 0.05 0.14 0.14 0.11 0.07 0.12 0.12 0.30 0.57 0.65 0.50 0.34 0.14 0.11 0.12 0.12 0.11 0.15 0.17 0.19 0.22 0.17 0.18 0.19 0.16 0.14 0.15 0.12 0.08 0.07 0.05 0.05 0.06 0.05 0.06 0.05 0.03 0.01 0.01 0.01
0.14 0.12 0.17 0.07 0.05 0.22 0.35 0.28 0.11 0.16 0.20 0.40 0.47 0.31 0.45 0.45 0.45 0.27 0.22 0.20 0.14 0.11 0.15 0.15 0.14 0.13 0.09 0.07 0.08 0.08 0.09 0.11 0.09 0.09 0.08 0.09 0.10 0.11 0.12 0.08 0.09 0.08 0.08 0.06
0.09 0.13 0.11 0.10 0.26 0.33 0.66 0.59 0.31 0.28 0.42 0.39 0.28 0.09 0.41 0.51 0.46 0.66 0.49 0.33 0.35 0.24 0.19 0.22 0.18 0.24 0.17 0.07 0.06 0.05 0.04 0.07 0.12 0.13 0.12 0.14 0.09 0.07 0.08 0.11 0.11 0.13 0.16 0.12
0.04 0.13 0.13 0.07 0.11 0.26 0.49 1.01 0.91 0.71 0.49 0.41 0.30 0.25 0.53 0.55 0.43 0.53 0.85 0.66 0.46 0.44 0.26 0.29 0.20 0.24 0.41 0.20 0.11 0.08 0.08 0.07 0.07 0.09 0.09 0.15 0.14 0.10 0.11 0.11 0.11 0.15 0.18 0.12
0.02 0.10 0.05 0.03 0.06 0.19 0.89 0.92 1.00 1.27 0.83 0.73 0.62 0.57 0.68 0.68 0.55 0.49 0.71 1.06 0.76 0.67 0.44 0.41 0.35 0.26 0.34 0.42 0.37 0.25 0.18 0.18 0.14 0.08 0.10 0.12 0.17 0.12 0.15 0.22 0.19 0.18 0.16 0.12
0.05 0.07 0.05 0.11 0.23 0.54 0.83 0.92 0.99 1.14 1.24 1.40 1.33 1.18 0.99 0.75 0.54 0.43 0.40 0.63 1.05 0.82 0.66 0.55 0.52 0.43 0.43 0.42 0.41 0.40 0.29 0.20 0.20 0.17 0.11 0.08 0.13 0.18 0.15 0.16 0.17 0.13 0.11 0.12
0.11 0.13 0.23 0.13 0.21 0.45 0.59 0.69 0.71 0.79 0.86 1.00 1.00 0.90 0.72 0.44 0.28 0.27 0.33 0.34 0.42 0.78 0.74 0.55 0.47 0.49 0.45 0.48 0.46 0.40 0.33 0.27 0.23 0.21 0.17 0.10 0.05 0.09 0.09 0.05 0.07 0.10 0.13 0.18
0.46 0.64 0.24 0.12 0.18 0.27 0.38 0.53 0.45 0.44 0.44 0.45 0.44 0.48 0.46 0.32 0.21 0.15 0.14 0.14 0.15 0.22 0.42 0.53 0.54 0.43 0.36 0.33 0.31 0.31 0.28 0.22 0.20 0.16 0.11 0.05 0.02 0.02 0.04 0.05 0.09 0.15 0.21 0.26
0.79 1.42 0.68 0.57 0.65 0.59 0.41 0.42 0.34 0.35 0.32 0.28 0.24 0.25 0.26 0.25 0.23 0.20 0.19 0.18 0.15 0.12 0.11 0.13 0.16 0.27 0.31 0.29 0.23 0.16 0.15 0.16 0.14 0.09 0.07 0.06 0.09 0.12 0.12 0.19 0.18 0.21 0.30 0.38
0.92 1.19 1.01 0.85 0.62 0.46 0.32 0.27 0.20 0.14 0.10 0.07 0.08 0.09 0.09 0.08 0.07 0.06 0.06 0.06 0.05 0.05 0.06 0.07 0.07 0.07 0.07 0.09 0.10 0.12 0.12 0.09 0.12 0.14 0.15 0.15 0.17 0.22 0.29 0.31 0.30 0.32 0.36 0.37
0.81 0.85 0.68 0.55 0.38 0.28 0.19 0.17 0.13 0.07 0.04 0.02 0.01 0.00 0.00 0.00 0.00 0.00 0.00 0.00 0.01 0.01 0.01 0.01 0.01 0.02 0.02 0.00 0.00 0.01 0.04 0.07 0.11 0.14 0.17 0.20 0.21 0.23 0.30 0.37 0.42 0.52 0.56 0.61
0.51 0.38 0.29 0.29 0.20 0.13 0.08 0.06 0.04 0.01 0.00 0.00 0.00 0.00 0.00 0.00 0.00 0.01 0.02 0.02 0.01 0.01 0.02 0.03 0.03 0.08 0.06 0.03 0.02 0.03 0.03 0.07 0.14 0.16 0.16 0.16 0.18 0.21 0.23 0.25 0.29 0.35 0.42 0.44
0.18 0.09 0.10 0.07 0.03 0.01 0.00 0.00 0.00 0.00 0.00 0.00 0.00 0.00 0.00 0.01 0.02 0.04 0.03 0.02 0.01 0.01 0.04 0.07 0.09 0.14 0.11 0.07 0.05 0.04 0.04 0.04 0.06 0.09 0.12 0.12 0.13 0.13 0.14 0.16 0.18 0.22 0.23 0.23
0.05 0.01 0.00 0.00 0.00 0.00 0.00 0.00 0.00 0.01 0.01 0.01 0.01 0.02 0.02 0.02 0.02 0.02 0.02 0.01 0.01 0.04 0.07 0.09 0.12 0.18 0.12 0.06 0.04 0.04 0.04 0.04 0.03 0.05 0.06 0.07 0.08 0.10 0.11 0.13 0.14 0.16 0.18 0.23
0.01 0.02 0.01 0.01 0.01 0.01 0.01 0.01 0.01 0.01 0.02 0.02 0.04 0.03 0.02 0.02 0.02 0.02 0.03 0.02 0.02 0.04 0.05 0.06 0.10 0.08 0.05 0.04 0.04 0.04 0.03 0.03 0.03 0.03 0.05 0.06 0.06 0.06 0.07 0.06 0.07 0.08 0.11 0.11
0.01 0.02 0.01 0.01 0.01 0.01 0.01 0.01 0.01 0.01 0.02 0.03 0.02 0.01 0.01 0.02 0.03 0.03 0.03 0.02 0.02 0.01 0.03 0.05 0.04 0.04 0.03 0.04 0.03 0.03 0.03 0.03 0.02 0.03 0.04 0.04 0.04 0.03 0.03 0.02 0.02 0.02 0.02 0.01
0.00 0.01 0.01 0.01 0.01 0.01 0.01 0.01 0.02 0.02 0.03 0.02 0.02 0.02 0.03 0.03 0.03 0.03 0.03 0.02 0.02 0.02 0.04 0.02 0.01 0.00 0.01 0.00 0.01 0.01 0.01 0.01 0.01 0.01 0.00 0.00 0.01 0.01 0.01 0.01 0.00 0.00 0.00 0.00
0.01 0.01 0.01 0.01 0.01 0.00 0.01 0.02 0.01 0.02 0.02 0.02 0.02 0.02 0.02 0.04 0.03 0.02 0.01 0.01 0.02 0.01 0.00 0.00 0.00 0.00 0.00 0.00 0.00 0.00 0.00 0.00 0.00 0.00 0.00 0.00 0.00 0.01 0.01 0.01 0.01 0.01 0.01 0.01
0.01 0.01 0.01 0.01 0.01 0.01 0.01 0.01 0.01 0.02 0.02 0.02 0.01 0.02 0.02 0.01 0.01 0.01 0.00 0.00 0.00 0.00 0.00 0.00 0.00 0.00 0.00 0.00 0.00 0.00 0.00 0.00 0.00 0.01 0.01 0.01 0.01 0.01 0.01 0.01 0.01 0.01 0.01 0.01
0.01 0.01 0.01 0.01 0.00 0.01 0.01 0.01 0.01 0.01 0.01 0.01 0.02 0.02 0.01 0.01 0.00 0.00 0.00 0.00 0.00 0.00 0.00 0.00 0.00 0.00 0.00 0.00 0.00 0.00 0.00 0.00 0.00 0.00 0.01 0.00 0.00 0.00 0.01 0.01 0.01 0.01 0.01 0.01
0.01 0.00 0.00 0.00 0.00 0.01 0.01 0.00 0.00 0.00 0.00 0.00 0.00 0.00 0.00 0.00 0.00 0.00 0.00 0.00 0.00 0.00 0.00 0.00 0.00 0.00 0.00 0.00 0.00 0.00 0.01 0.01 0.01 0.01 0.00 0.00 0.00 0.01 0.00 0.00 0.01 0.01 0.01 0.01
0.01 0.00 0.00 0.00 0.00 0.00 0.01 0.00 0.00 0.00 0.00 0.00 0.00 0.00 0.00 0.01 0.01 0.00 0.00 0.00 0.00 0.00 0.00 0.00 0.00 0.00 0.00 0.01 0.01 0.01 0.00 0.01 0.01 0.01 0.01 0.00 0.01 0.01 0.01 0.00 0.00 0.01 0.01 0.01
0.01 0.01 0.02 0.03 0.02 0.00 0.00 0.00 0.00 0.00 0.00 0.00 0.00 0.00 0.00 0.00 0.00 0.00 0.00 0.00 0.00 0.00 0.01 0.01 0.00 0.00 0.01 0.01 0.01 0.01 0.01 0.01 0.01 0.00 0.01 0.01 0.01 0.01 0.01 0.00 0.00 0.01 0.01 0.01
0.01 0.00 0.01 0.01 0.01 0.00 0.00 0.01 0.02 0.02 0.02 0.02 0.01 0.01 0.01 0.00 0.00 0.01 0.00 0.00 0.00 0.00 0.01 0.01 0.01 0.01 0.01 0.01 0.01 0.01 0.01 0.01 0.01 0.01 0.00 0.00 0.01 0.01 0.00 0.01 0.01 0.00 0.00 0.00
0.00 0.00 0.00 0.00 0.00 0.00 0.00 0.00 0.01 0.02 0.02 0.02 0.02 0.02 0.01 0.01 0.01 0.00 0.01 0.01 0.01 0.01 0.01 0.02 0.02 0.01 0.01 0.01 0.01 0.01 0.01 0.01 0.01 0.01 0.01 0.01 0.01 0.02 0.01 0.01 0.00 0.00 0.00 0.00

GFSNGP_prec_precacc24_096.txt.gz
Total_Precipitation_Accumulation
0.29 0.10 0.08 0.18 0.22 0.26 0.38 0.25 0.15 0.04 0.11 0.37 0.71 0.32 0.07 0.03 0.01 0.05 0.04 0.05 0.11 0.17 0.23 0.24 0.21 0.16 0.12 0.07 0.11 0.12 0.07 0.03 0.02 0.02 0.02 0.03 0.02 0.02 0.02 0.02 0.01 0.02 0.03 0.03
0.05 0.07 0.04 0.10 0.18 0.13 0.14 0.10 0.09 0.06 0.17 0.30 0.56 0.56 0.30 0.15 0.04 0.09 0.09 0.08 0.11 0.17 0.22 0.29 0.38 0.47 0.46 0.31 0.20 0.13 0.08 0.09 0.07 0.07 0.06 0.05 0.03 0.02 0.02 0.02 0.02 0.02 0.03 0.04
0.01 0.04 0.07 0.08 0.05 0.14 0.14 0.11 0.07 0.11 0.11 0.30 0.57 0.65 0.50 0.34 0.14 0.11 0.12 0.12 0.11 0.15 0.18 0.22 0.26 0.21 0.22 0.26 0.23 0.17 0.16 0.13 0.09 0.09 0.06 0.05 0.06 0.05 0.07 0.06 0.04 0.02 0.03 0.02
0.04 0.08 0.18 0.08 0.04 0.22 0.35 0.27 0.10 0.16 0.20 0.40 0.47 0.31 0.45 0.46 0.46 0.27 0.22 0.21 0.14 0.12 0.15 0.18 0.20 0.19 0.16 0.14 0.15 0.11 0.10 0.12 0.10 0.10 0.09 0.10 0.11 0.13 0.13 0.09 0.10 0.09 0.10 0.09
0.05 0.10 0.09 0.10 0.23 0.31 0.63 0.54 0.26 0.26 0.41 0.39 0.29 0.09 0.41 0.52 0.48 0.68 0.51 0.34 0.36 0.26 0.23 0.29 0.27 0.33 0.26 0.17 0.14 0.08 0.05 0.09 0.13 0.14 0.13 0.16 0.10 0.09 0.11 0.14 0.14 0.14 0.17 0.13
0.02 0.08 0.15 0.13 0.10 0.21 0.35 0.83 0.88 0.69 0.49 0.41 0.31 0.27 0.55 0.58 0.47 0.57 0.88 0.68 0.47 0.47 0.33 0.44 0.47 0.44 0.60 0.36 0.23 0.14 0.10 0.10 0.09 0.11 0.11 0.16 0.15 0.12 0.12 0.13 0.13 0.16 0.19 0.13
0.02 0.09 0.05 0.03 0.05 0.18 0.85 0.90 1.00 1.27 0.83 0.73 0.63 0.60 0.72 0.72 0.59 0.53 0.74 1.09 0.79 0.72 0.57 0.57 0.76 0.58 0.62 0.92 0.66 0.40 0.25 0.23 0.18 0.11 0.14 0.14 0.18 0.14 0.16 0.24 0.22 0.21 0.19 0.15
0.06 0.10 0.06 0.11 0.22 0.53 0.83 0.94 1.00 1.15 1.24 1.41 1.35 1.21 1.02 0.78 0.57 0.47 0.44 0.67 1.11 0.94 0.87 0.74 0.83 0.88 0.68 0.77 1.04 0.88 0.50 0.35 0.33 0.33 0.23 0.16 0.17 0.23 0.21 0.21 0.23 0.21 0.19 0.17
0.12 0.15 0.22 0.12 0.21 0.46 0.60 0.70 0.73 0.81 0.87 1.01 1.01 0.92 0.75 0.48 0.32 0.31 0.38 0.41 0.51 0.88 0.94 0.78 0.63 0.77 0.79 0.84 0.90 0.89 0.90 0.69 0.57 0.45 0.44 0.39 0.30 0.23 0.23 0.25 0.23 0.22 0.25 0.30
0.43 0.58 0.17 0.09 0.18 0.28 0.38 0.54 0.47 0.46 0.46 0.46 0.47 0.52 0.50 0.36 0.25 0.19 0.19 0.21 0.24 0.31 0.51 0.68 0.73 0.58 0.57 0.57 0.58 0.70 0.64 0.61 0.62 0.57 0.47 0.44 0.39 0.33 0.24 0.22 0.25 0.26 0.23 0.25
0.77 1.35 0.52 0.53 0.66 0.61 0.43 0.44 0.36 0.38 0.35 0.30 0.27 0.29 0.30 0.30 0.27 0.24 0.23 0.22 0.20 0.18 0.18 0.23 0.31 0.43 0.47 0.47 0.40 0.34 0.35 0.37 0.34 0.30 0.27 0.23 0.23 0.21 0.17 0.22 0.16 0.15 0.17 0.19
0.91 1.18 0.93 0.84 0.63 0.47 0.33 0.30 0.22 0.16 0.13 0.10 0.11 0.12 0.11 0.10 0.09 0.07 0.07 0.06 0.06 0.07 0.07 0.09 0.10 0.13 0.12 0.16 0.21 0.25 0.27 0.27 0.29 0.26 0.23 0.21 0.21 0.23 0.23 0.24 0.19 0.17 0.18 0.20
0.83 0.86 0.68 0.56 0.38 0.28 0.20 0.19 0.14 0.08 0.06 0.04 0.02 0.00 0.00 0.01 0.00 0.00 0.00 0.00 0.01 0.01 0.01 0.01 0.01 0.02 0.02 0.01 0.01 0.01 0.03 0.05 0.07 0.10 0.12 0.13 0.12 0.12 0.20 0.30 0.37 0.45 0.46 0.47
0.52 0.40 0.31 0.30 0.21 0.14 0.09 0.07 0.04 0.02 0.00 0.00 0.00 0.00 0.00 0.00 0.00 0.01 0.02 0.02 0.01 0.00 0.01 0.01 0.01 0.05 0.04 0.01 0.01 0.02 0.02 0.02 0.02 0.02 0.02 0.02 0.03 0.04 0.06 0.07 0.09 0.14 0.18 0.20
0.19 0.09 0.10 0.07 0.03 0.01 0.00 0.00 0.00 0.00 0.00 0.00 0.00 0.00 0.00 0.01 0.02 0.03 0.03 0.01 0.00 0.00 0.01 0.00 0.01 0.06 0.04 0.02 0.02 0.03 0.03 0.03 0.02 0.02 0.02 0.02 0.03 0.03 0.04 0.05 0.06 0.10 0.10 0.10
0.05 0.01 0.00 0.00 0.00 0.00 0.00 0.00 0.00 0.01 0.01 0.01 0.01 0.01 0.02 0.01 0.02 0.02 0.02 0.01 0.01 0.02 0.03 0.02 0.03 0.08 0.04 0.01 0.02 0.03 0.03 0.02 0.02 0.02 0.02 0.02 0.02 0.02 0.03 0.03 0.04 0.05 0.07 0.09
0.01 0.01 0.01 0.01 0.01 0.00 0.01 0.01 0.01 0.01 0.01 0.02 0.03 0.03 0.02 0.01 0.01 0.01 0.02 0.01 0.01 0.02 0.02 0.02 0.05 0.03 0.02 0.01 0.02 0.02 0.03 0.02 0.02 0.02 0.03 0.03 0.02 0.02 0.02 0.02 0.03 0.03 0.05 0.05
0.01 0.01 0.01 0.01 0.01 0.01 0.01 0.01 0.01 0.01 0.02 0.02 0.01 0.00 0.00 0.01 0.02 0.02 0.02 0.01 0.01 0.00 0.01 0.02 0.01 0.01 0.01 0.02 0.02 0.02 0.02 0.02 0.02 0.02 0.02 0.02 0.02 0.01 0.01 0.01 0.01 0.00 0.00 0.00
0.00 0.00 0.00 0.00 0.00 0.00 0.01 0.01 0.01 0.01 0.01 0.00 0.00 0.01 0.01 0.01 0.01 0.01 0.01 0.01 0.00 0.00 0.01 0.00 0.00 0.00 0.00 0.00 0.00 0.00 0.00 0.01 0.00 0.00 0.00 0.00 0.00 0.00 0.00 0.00 0.00 0.00 0.00 0.00
0.00 0.00 0.00 0.01 0.00 0.00 0.01 0.01 0.00 0.00 0.01 0.00 0.00 0.00 0.01 0.01 0.01 0.00 0.00 0.01 0.01 0.01 0.00 0.00 0.00 0.00 0.00 0.00 0.00 0.00 0.00 0.00 0.00 0.00 0.00 0.00 0.01 0.01 0.01 0.01 0.01 0.01 0.01 0.01
0.01 0.00 0.00 0.00 0.01 0.01 0.00 0.00 0.00 0.00 0.00 0.00 0.00 0.00 0.00 0.00 0.00 0.00 0.00 0.00 0.00 0.00 0.00 0.00 0.00 0.00 0.00 0.00 0.00 0.00 0.00 0.00 0.00 0.01 0.01 0.01 0.01 0.01 0.01 0.01 0.01 0.01 0.01 0.01
0.00 0.00 0.00 0.00 0.00 0.01 0.00 0.00 0.00 0.00 0.00 0.00 0.00 0.00 0.00 0.00 0.00 0.00 0.00 0.00 0.00 0.00 0.00 0.00 0.00 0.00 0.00 0.00 0.00 0.00 0.00 0.00 0.00 0.00 0.01 0.01 0.01 0.01 0.01 0.01 0.01 0.01 0.01 0.01
0.00 0.00 0.00 0.00 0.00 0.00 0.00 0.00 0.00 0.00 0.00 0.00 0.00 0.00 0.00 0.00 0.00 0.00 0.01 0.00 0.00 0.00 0.00 0.00 0.00 0.00 0.00 0.01 0.01 0.00 0.01 0.01 0.01 0.01 0.01 0.01 0.01 0.01 0.01 0.01 0.01 0.01 0.01 0.01
0.00 0.00 0.00 0.00 0.00 0.00 0.00 0.00 0.00 0.00 0.00 0.00 0.00 0.00 0.00 0.00 0.01 0.00 0.00 0.00 0.00 0.00 0.00 0.00 0.00 0.00 0.00 0.01 0.01 0.01 0.01 0.01 0.01 0.01 0.01 0.01 0.01 0.01 0.01 0.01 0.01 0.01 0.01 0.01
0.00 0.01 0.01 0.03 0.01 0.00 0.00 0.00 0.00 0.00 0.00 0.00 0.00 0.00 0.00 0.00 0.00 0.00 0.00 0.00 0.00 0.00 0.01 0.02 0.00 0.00 0.01 0.01 0.01 0.01 0.01 0.01 0.01 0.01 0.01 0.01 0.01 0.01 0.01 0.01 0.01 0.01 0.01 0.01
0.01 0.00 0.01 0.01 0.01 0.00 0.00 0.01 0.02 0.02 0.02 0.02 0.01 0.01 0.01 0.01 0.00 0.00 0.00 0.00 0.00 0.00 0.01 0.02 0.02 0.01 0.01 0.01 0.01 0.01 0.01 0.02 0.01 0.01 0.01 0.01 0.01 0.01 0.01 0.01 0.01 0.01 0.01 0.01
0.00 0.00 0.00 0.00 0.00 0.00 0.00 0.00 0.01 0.02 0.01 0.02 0.02 0.01 0.01 0.01 0.01 0.00 0.01 0.01 0.01 0.01 0.01 0.02 0.02 0.02 0.02 0.01 0.01 0.01 0.01 0.01 0.01 0.01 0.01 0.01 0.01 0.02 0.01 0.01 0.01 0.01 0.01 0.01